Погода Верхний Уфалей

Погода Верхний Уфалей : погода сейчас, прогноз погоды и архив. Всё, что Вы хотите узнать о погоде Верхний Уфалей!

Поиск расширенной информации на нашем сайте:

Другие новости

Новости СМИ2

Главная страница сайта

Новости сайта

03.07.2017

Напоминаем, что на нашем специализированном сайте Метеоцентр.Азия вы можете получить высокодетализированные автоматические прогнозы погоды по пунктам России, СНГ и мира в авиационном формате (включающие направление и скорость ветра, видимость, явления погоды, количество и форму облачности, нижнюю и верхнюю границу облачности).


Погода Верхний Уфалей - сегодня

Время (UTC), дата Ветер
(°,м/с) 
Видим.   Явления Облачность Т
(°С)
Тd
(°С)
f(%) Тe
(°С)
Pmin
(гПа)
dP
(гПа)
Po
(мм)
O2
(г/м3)
Тmin Tmax R s Состояние
почвы
00 11.11.18 тихо ()   20000 м    ясно 
-20.2 -22.1 85 -20  1045.4  1.2  743  325           
06 11.11.18 230 (ЮЗ) 20000 м    ясно 
-16.6 -19.2 80 -19  1048.5  2.2  746  321           
09 11.11.18 280 (З) 20000 м    8/0 средняя, верхняя 
[Ac trans|Ci sp]
-11.6 -16 70 -15  1047.6  0.1  746  315           
12 11.11.18 270 (З) 20000 м    9/0 средняя, верхняя 
[Ac trans|Ci sp]
-12.1 -14.8 80 -15  1048.2  0.5  746  316           
18 11.11.18 270 (З) 20000 м    9/0 средняя, верхняя 
[Ac trans|Ci sp]
-11.9 -14.2 83 -15  1046.5  -1.1  745  315           
21 11.11.18 240 (ЮЗ) 20000 м    8/0 средняя, верхняя 
[Ac trans|Ci sp]
-12.9 -14.9 85 -15  1046.2  -0.4  745  316           
00 12.11.18 270 (З) 20000 м    9/0 средняя, верхняя 
[Ac trans|Ci sp]
-11.4 -14.9 75 -15  1045.5  -0.4  745  314           
06 12.11.18 280 (З) 5{10}  20000 м    ясно 
-9.1 -16.5 55 -14  1045.2  0.3  745  312           
09 12.11.18 280 (З) 5{12}  20000 м    4/0 средняя 
[Ac trans]
-7.1 -17.1 45 -11  1043.8  -1  744  309           
18 12.11.18 270 (З) 4{11}  20000 м    8/0 средняя, верхняя 
[Ac trans|Ci fib]
-8.5 -15 59 -12  1042.6  -0.1  743  310           
21 12.11.18 270 (З) 6{10}  20000 м    10/3 600 м средняя 
[Sc|Ac As]
-8.4 -14.3 62 -13  1041.8  -0.7  742  310           
00 13.11.18 260 (З) 4{10}  20000 м    10/5 600 м средняя 
[Sc|Ac As]
-8.5 -14.4 62 -12  1041.6  -0.2  742  310           
06 13.11.18 280 (З) 20000 м    3/0 верхняя 
[Ci fib]
-8.1 -14.6 59 -11  1042.2  743  310  -10.1         
09 13.11.18 270 (З) 20000 м    6/0 средняя, верхняя 
[Ac trans|Ci fib]
-5.6 -15.7 45 -9  1041  -0.8  742  307           
12 13.11.18 260 (З) 20000 м    9/0 средняя, верхняя 
[Ac trans|Ci fib]
-6 -14.5 51 -9  1040.7  -0.3  742  307           
18 13.11.18 260 (З) 20000 м    6/0 верхняя 
[Ci fib]
-8.6 -14.7 61 -12  1039.7  -1.2  741  309           
21 13.11.18 270 (З) 20000 м    ясно 
-9.5 -14.4 67 -13  1039  -0.8  740  310           
00 14.11.18 260 (З) 20000 м    ясно 
-10.4 -14.8 70 -13  1038.6  -0.6  740  311           
06 14.11.18 260 (З) 20000 м    ясно 
-7.5 -15.8 51 -11  1037.3  -0.2  739  308           
09 14.11.18 250 (З) 20000 м    ясно 
-4.4 -15.6 41 -8  1035.5  -1.1  738  304           
12 14.11.18 250 (З) 3{10}  20000 м    4/0 верхняя 
[Ci fib]
-5.5 -16.2 43 -8  1035.4  -0.3  738  305           
15 14.11.18 260 (З) 20000 м    ясно 
-6.5 -16.8 44 -8  1035.3  -0.3  738  306    -4       
18 14.11.18 250 (З) 20000 м    ясно 
-7.5 -16.5 49 -11  1035.7  0.2  738  307           
21 14.11.18 260 (З) 20000 м    4/0 средняя 
[Ac trans]
-7.6 -15.6 53 -11  1036.1  0.4  738  307           
00 15.11.18 260 (З) 3{10}  20000 м    6/0 средняя 
[Ac trans]
-7.6 -16 51 -10  1036.3  0.2  739  307           
Время (UTC), дата Ветер
(°,м/с) 
Видим.   Явления Облачность Т
(°С)
Тd
(°С)
f(%) Тe
(°С)
Pmin
(гПа)
dP
(гПа)
Po
(мм)
O2
(г/м3)
Тmin Tmax R s Состояние
почвы

Для получения пояснительной информации подведите курсор к названию столбца.

ПОГОДА Верхний Уфалей - архив

Всё, что Вы хотите узнать о погоде Верхний Уфалей - удобно и подробно!

Выберите нужную дату (начиная с 1 января 2015* года) и нажмите кнопку "Найти".
Будут отображены архивные сводки погоды по пункту Верхний Уфалей, начиная с указанной даты.


Отображать данные в формате CSV (для использования в таблицах Excel)


Внимание! Наш архив погоды предназначен исключительно для личного некоммерческого использования в познавательных целях. Если Вам необходимы официальные справки о состоянии погоды (для производственных, юридических, коммерческих и т.п. целей), обращайтесь в органы Росгидромета.

*Примечание: данная дата относится к архиву по метеостанциям СССР (Россия, СНГ, Балтия).
Архив по метеостанциям Зарубежной Европы и Азии (кроме Китая) хранится 10 дней, по другим регионам земного шара (Китай, Африка, Америка, Австралия, Океания) - 1 день.

Верхний Уфалей - район местоположения метеостанции


Название, широта, долгота, высота метеостанции:
Верхний Уфалей 56.1°ш. 60.3°д. 399 м над ур. моря [Российская Федерация]

Дополнительная информация

В oтличие oт бoльшинства пoгoдных сайтoв мы публикуем пoдрoбную метеoинфoрмацию в детальнoм прoфессиoнальнoм фoрмате.

Характеристики температуры и влажнoсти вoздуха измеряются на высoте 2 м в тени вдали oт зданий и деревьев.
Скoрoсть ветра измеряется на высoте 10 м (на урoвне рoста челoвека скoрoсть ветра ниже в 1.5-2 раза). Если метеoстанция нахoдится в гoрoде или в лесу, тo скoрoсть ветра занижена на 2-4 м/с пo сравнению с oткрытым местoм. Скoрoсть ветра над акватoриями крупных рек и oзёр, а также на вершинах хoлмoв на 2-5 м/с выше, чем в oбычных услoвиях.
Атмoсфернoе давление в разных тoчках местнoсти мoжет значительнo oтличаться oт давления на метеoстанции, в зависимoсти oт услoвий рельефа (при пoдъёме на 10 м давление пoнижается примернo на 1 мм рт.ст.).